Torna al catalogo

ARABSAT 1DR

TELSTAR 3A

AttivoComunicazioniGEO
NORAD 14234·PAYLOAD·🇦🇪 UAE🇸🇦 Saudi Arabia

Lanciato Jul 28, 1983 da Cape Canaveral Space Force Station

Loading…

TLE

AggiornatoSource: Space-Track

Epoca: Sep 13, 2026, 17:34 UTC

1 14234U 83077A   26256.73216400 -.00000062  00000-0  00000-0 0  9992
2 14234  13.7226 341.3289 0025968 178.2548 181.7750  0.99519761 47212

Traccia ARABSAT 1DR in tempo reale con AllMySat

Download on the App Store